[[{"header":{"parameterUnit":"m.s-1","parameterCategory":2,"la1":30.2991,"la2":30.254,"lo1":-89.0895,"lo2":-89.0444,"dx":0.0017,"dy":0.0017,"nx":28,"ny":28,"refTime":"2022-12-14T15:00:00:Z","depth":"0","parameterNumber":2,"parameterNumberName":"U-component_of_CURRENTS"},"data":[0,0,0,0,0,0,0,0,0,0,0,0,0,0,0,0,0,0,0,0,0,0,0,0,0,0,0,0,0,0,0,0,0,0,0,0,0,0,0,0,0,0,0,0,0,0,0,0,0,0,0,0,0,0,0,0,0,0,0.239,0.2391,0,0.242,0.2421,0.2421,0.2413,0.2413,0.2412,0.2412,0.2413,0.2413,0.2413,0,0,0,0,0,0,0,0,0,0,0,0,0,0.2334,0.2334,0.239,0.2391,0.2392,0.242,0.2421,0.2421,0.2413,0.2413,0.2412,0.2412,0.2413,0.2413,0.2413,0,0,0,0,0,0,0,0,0,0,0,0,0,0.2358,0.2335,0.239,0.2393,0.2394,0.242,0.2421,0.2421,0.2413,0.2413,0.2412,0.2412,0.2412,0.2413,0.2414,0.2428,0,0,0.2415,0.2415,0,0,0,0,0,0,0,0,0.2357,0.236,0.2392,0.2393,0.2394,0.2415,0.2401,0.2423,0.2413,0.2403,0.2412,0.2411,0.2413,0.2413,0.2417,0.2428,0.2428,0.2415,0.2416,0.2416,0.2416,0,0,0,0,0,0,0,0.2355,0.2359,0.24,0.2393,0.2394,0.2396,0.2398,0.2405,0.2408,0.2404,0.2404,0.2412,0.2413,0.2417,0.2417,0.2428,0.2415,0.2416,0.2416,0.2416,0.2482,0.2484,0,0,0,0,0,0,0.2357,0.2357,0.2399,0.2401,0.2376,0.2397,0.24,0.2407,0.2409,0.241,0.2412,0.2411,0.2416,0.2416,0.2417,0.2456,0.2416,0.2416,0.2417,0.2481,0.2483,0.2484,0,0,0,0,0,0,0.2355,0.236,0.2398,0.2381,0.2387,0.2399,0.2406,0.2407,0.2415,0.2416,0.2415,0.2419,0.2415,0.2416,0.2435,0.2455,0.2417,0.2417,0.2479,0.2481,0.2483,0.2519,0,0,0,0,0,0,0.2353,0.2359,0.2365,0.2382,0.2388,0.2419,0.2407,0.2409,0.2421,0.242,0.2421,0.2421,0.2415,0.2435,0.2436,0.2455,0.2417,0.2477,0.248,0.2483,0.2516,0.2522,0.2527,0,0,0,0,0,0.2351,0.2361,0.2365,0.237,0.2395,0.242,0.2423,0.2428,0.2422,0.2431,0.2436,0.2421,0.2452,0.2436,0.2437,0.2457,0.2476,0.2479,0.2482,0.2513,0.2521,0.2527,0,0,0,0,0,0,0.2338,0.2362,0.2366,0.2383,0.2403,0.2419,0.243,0.2433,0.2444,0.2443,0.2437,0.2438,0.2464,0.2459,0.2441,0.2486,0.2463,0.2466,0.2486,0.2493,0.2499,0.2501,0.2418,0,0,0,0,0,0.234,0.2354,0.2377,0.2391,0.2403,0.2417,0.2428,0.2434,0.2447,0.2451,0.2453,0.2461,0.2479,0.2483,0.2496,0.2517,0.2528,0.2532,0.2538,0.2542,0.2547,0.2584,0.2594,0.2495,0.2495,0.2495,0,0,0.234,0.2355,0.2363,0.239,0.2405,0.2426,0.2422,0.2444,0.2461,0.245,0.2471,0.2482,0.2491,0.2519,0.253,0.2514,0.2579,0.2546,0.255,0.2552,0.2589,0.2598,0.2607,0.2497,0.2496,0.2496,0,0,0.2346,0.2361,0.2374,0.2394,0.2422,0.2436,0.2444,0.2467,0.2477,0.2502,0.2505,0.2529,0.2544,0.2561,0.257,0.2616,0.2612,0.2618,0.2643,0.268,0.2688,0.2695,0.2731,0.2741,0.2616,0.2617,0.2617,0,0.2346,0.2362,0.2383,0.2402,0.2417,0.2442,0.2458,0.2481,0.2506,0.2519,0.2513,0.2561,0.2567,0.2609,0.2627,0.2628,0.2647,0.2613,0.2686,0.2694,0.27,0.2736,0.2746,0.2619,0.2618,0.2618,0.2618,0,0.2359,0.2375,0.2388,0.2419,0.2439,0.2461,0.2494,0.2518,0.2532,0.2551,0.2594,0.2614,0.2639,0.2652,0.2653,0.2708,0.2706,0.2692,0.2666,0.2712,0.2747,0.2757,0.2622,0.2621,0.262,0.262,0,0,0.2346,0.2387,0.239,0.2405,0.2447,0.2466,0.2505,0.2544,0.2578,0.2603,0.2644,0.268,0.2692,0.2705,0.2716,0.2749,0.2819,0.2742,0.2743,0.2773,0.2905,0.2903,0.2914,0.2815,0.2817,0.2819,0.2912,0,0.2348,0.2372,0.2396,0.2428,0.2445,0.2483,0.2519,0.256,0.2601,0.2653,0.2683,0.2733,0.2713,0.2741,0.2768,0.2815,0.2847,0.2795,0.286,0.2862,0.285,0.2926,0.288,0.296,0.2923,0.2924,0.2926,0,0.2343,0.2363,0.238,0.243,0.2442,0.2466,0.2529,0.2571,0.2651,0.2688,0.2736,0.2771,0.2834,0.2812,0.2895,0.2863,0.2885,0.2912,0.2916,0.2907,0.288,0.2906,0.298,0.295,0.2942,0.294,0.2939,0,0.2305,0.235,0.2359,0.2375,0.2437,0.2454,0.2493,0.2569,0.2617,0.2723,0.277,0.2838,0.2889,0.2927,0.2975,0.2944,0.3069,0.3029,0.3046,0.3045,0.3016,0.301,0.3062,0.3084,0.3084,0.3084,0.3084,0,0.2288,0.23,0.2341,0.2349,0.2379,0.2431,0.2482,0.2545,0.2637,0.2704,0.2783,0.2852,0.2921,0.2992,0.3013,0.3076,0.3096,0.3074,0.3079,0.3029,0.3023,0.3001,0.2965,0.3087,0.3087,0.3086,0.3085,0,0.2244,0.2268,0.2288,0.2341,0.2359,0.2381,0.2465,0.2517,0.2611,0.2706,0.2744,0.2879,0.2991,0.3054,0.3148,0.3133,0.3122,0.3199,0.3141,0.3137,0.3101,0.3067,0.2957,0.2859,0.3235,0.3236,0.3236,0,0.2223,0.2226,0.2269,0.2289,0.2311,0.2355,0.2396,0.2491,0.2556,0.2716,0.2765,0.2911,0.3008,0.3158,0.3204,0.3269,0.3154,0.3233,0.316,0.3118,0.3085,0.291,0.2822,0.3141,0.3141,0.3141,0.314,0,0.22,0.2208,0.2232,0.226,0.2293,0.2327,0.2392,0.2427,0.2552,0.2645,0.2777,0.2871,0.305,0.313,0.3231,0.325,0.3103,0.3228,0.3205,0.3042,0.2835,0.2737,0.3059,0.3138,0.3139,0.3139,0.3139,0.3139,0.2189,0.2194,0.2221,0.2241,0.2271,0.2284,0.2285,0.2373,0.245,0.2556,0.2706,0.2825,0.3027,0.3184,0.3172,0.3186,0.3091,0.3138,0.3112,0.2945,0.2811,0.3132,0.3199,0.32,0.32,0.3201,0.3201,0,0.2179,0.2186,0.2208,0.2215,0.2208,0.2238,0.2275,0.2265,0.2315,0.2479,0.2584,0.2806,0.293,0.305,0.318,0.311,0.2906,0.3043,0.2805,0.273,0.3068,0.3028,0.3038,0.3038,0.3038,0.3038,0.3038,0.3038,0.2183,0.2182,0.2177,0.2142,0.2141,0.2091,0.2081,0.2088,0.2173,0.2298,0.2434,0.257,0.288,0.3103,0.3126,0.3048,0.2813,0.271,0.2638,0.294,0.2946,0.2952,0.2908,0.2892,0.2892,0.2198,0.2193,0.219]},{"header":{"parameterUnit":"m.s-1","parameterCategory":2,"la1":30.2991,"la2":30.254,"lo1":-89.0895,"lo2":-89.0444,"dx":0.0017,"dy":0.0017,"nx":28,"ny":28,"refTime":"2022-12-14T15:00:00:Z","depth":"0","parameterNumber":3,"parameterNumberName":"V-component_of_CURRENTS"},"data":[0,0,0,0,0,0,0,0,0,0,0,0,0,0,0,0,0,0,0,0,0,0,0,0,0,0,0,0,0,0,0,0,0,0,0,0,0,0,0,0,0,0,0,0,0,0,0,0,0,0,0,0,0,0,0,0,0,0,0.0178,0.0177,0,0.011,0.0109,0.0108,0.006,0.006,0.0059,0.0059,-0.0036,-0.0038,-0.004,0,0,0,0,0,0,0,0,0,0,0,0,0,0.0217,0.0217,0.0178,0.0177,0.0177,0.011,0.0109,0.0108,0.006,0.006,0.0059,0.0059,-0.0035,-0.0037,-0.004,0,0,0,0,0,0,0,0,0,0,0,0,0,0.0179,0.0217,0.0178,0.0146,0.0142,0.011,0.0109,0.0107,0.006,0.006,0.0059,0.0059,-0.0034,-0.0037,-0.0041,-0.0053,0,0,-0.0051,-0.0052,0,0,0,0,0,0,0,0,0.0181,0.0177,0.0151,0.0148,0.0144,0.0094,0.0088,0.0053,0.006,0.009,0.0059,0.0059,0.0006,-0.0,-0.0014,-0.0058,-0.0062,-0.0051,-0.0053,-0.0055,-0.0056,0,0,0,0,0,0,0,0.0184,0.018,0.015,0.015,0.0146,0.0117,0.0112,0.0081,0.005,0.0087,0.0084,0.0078,0.0004,-0.001,-0.0016,-0.0063,-0.0051,-0.0054,-0.0056,-0.0058,-0.012,-0.012,0,0,0,0,0,0,0.0198,0.0183,0.0152,0.0148,0.0163,0.0117,0.0111,0.0109,0.0051,0.0042,0.0079,0.0076,-0.0004,-0.0012,-0.002,-0.0024,-0.0055,-0.0058,-0.006,-0.012,-0.012,-0.0119,0,0,0,0,0,0,0.0199,0.0196,0.0155,0.0164,0.0157,0.0118,0.0116,0.0108,0.0095,0.0045,0.0035,0.0074,-0.0005,-0.0015,-0.0041,-0.0028,-0.0059,-0.0063,-0.0121,-0.012,-0.012,-0.0041,0,0,0,0,0,0,0.0201,0.0197,0.0201,0.0165,0.0157,0.0144,0.0116,0.0107,0.0093,0.0089,0.0038,0.0028,-0.0006,-0.0035,-0.0044,-0.0034,-0.0065,-0.0121,-0.0121,-0.012,-0.0044,-0.0038,-0.0033,0,0,0,0,0,0.0202,0.0214,0.0202,0.0198,0.0164,0.0145,0.0138,0.0107,0.0094,0.0093,0.0059,0.003,-0.0037,-0.0037,-0.0048,-0.0038,-0.0122,-0.0121,-0.012,-0.0047,-0.0039,-0.0033,0,0,0,0,0,0,0.0234,0.0209,0.0195,0.0199,0.0176,0.0137,0.0136,0.0113,0.0086,0.0084,0.0034,0.0022,0.0004,-0.0028,-0.0028,-0.0055,-0.0084,-0.0085,-0.0025,-0.0018,-0.0012,0.0006,-0.0068,0,0,0,0,0,0.0243,0.0245,0.0215,0.0217,0.0211,0.0174,0.0162,0.0143,0.0114,0.0101,0.0065,0.0028,-0.0001,-0.0017,-0.0049,-0.0063,-0.0094,-0.0065,-0.0059,-0.0053,-0.0046,-0.0079,-0.0075,-0.0117,-0.0117,-0.0117,0,0,0.0257,0.0243,0.0244,0.0224,0.0205,0.0205,0.0166,0.0158,0.0156,0.0095,0.0085,0.0047,-0.0001,-0.0016,-0.0027,-0.0041,-0.0057,-0.0052,-0.0047,-0.0043,-0.0078,-0.0074,-0.007,-0.0116,-0.0116,-0.0116,0,0,0.0288,0.0273,0.0287,0.0274,0.0253,0.0232,0.0233,0.02,0.0185,0.0167,0.0126,0.0099,0.0051,0.0023,0.0002,0.002,-0.0026,0.0008,0.0052,0.0021,0.0024,0.0027,-0.0002,-0.0002,0.0012,0.0012,0.0012,0,0.0304,0.0316,0.0287,0.0297,0.0294,0.025,0.0265,0.0244,0.0206,0.0199,0.0175,0.0112,0.0071,0.0055,0.006,0.0035,0.0009,0.0032,0.003,0.0031,0.0033,0.0003,0.0001,0.0016,0.0015,0.0015,0.0015,0,0.0344,0.0353,0.0362,0.036,0.0353,0.0359,0.033,0.0321,0.0295,0.027,0.0246,0.0188,0.0152,0.0134,0.01,0.0092,0.0068,0.0042,0.0016,0.0042,0.0008,0.0005,0.0021,0.002,0.0019,0.0018,0,0,0.0381,0.0389,0.0391,0.0404,0.0388,0.0389,0.0393,0.0382,0.0391,0.0342,0.0346,0.0286,0.0252,0.0225,0.0179,0.0148,0.0132,0.0104,0.0101,0.0084,0.0064,0.0057,0.0052,0.0104,0.0104,0.0104,0.0039,0,0.042,0.0457,0.0447,0.0481,0.0499,0.047,0.048,0.0464,0.044,0.0432,0.037,0.0353,0.0288,0.0276,0.0234,0.016,0.0126,0.0152,0.0034,0.0031,0.0028,0.0049,0.0079,0.0025,0.0035,0.0035,0.0034,0,0.046,0.0482,0.0525,0.0549,0.0555,0.0568,0.0579,0.0583,0.0558,0.0541,0.0506,0.0455,0.0406,0.0348,0.0232,0.0251,0.0167,0.0101,0.0097,0.0062,0.0018,-0.0002,0.0018,-0.0129,0.0029,0.0029,0.003,0,0.05,0.0534,0.0572,0.0578,0.0598,0.0616,0.0627,0.0618,0.0641,0.0615,0.0629,0.0544,0.052,0.0402,0.0266,0.0249,0.0138,0.0095,0.0007,0.0005,-0.0007,-0.0009,-0.0135,0.0013,0.0014,0.0014,0.0014,0,0.0543,0.0575,0.0597,0.062,0.0677,0.0669,0.0724,0.0721,0.0736,0.0783,0.0693,0.0712,0.0533,0.0447,0.0303,0.0156,0.0164,0.0022,-0.0009,0.0022,0.0023,-0.0136,-0.0217,0.0011,0.0012,0.0012,0.0013,0,0.0582,0.0592,0.0644,0.068,0.0699,0.0741,0.0805,0.085,0.0847,0.0909,0.0911,0.084,0.0732,0.0548,0.0362,0.0221,-0.0012,0.0012,0.0063,0.0039,-0.0184,-0.0259,-0.0417,-0.0496,-0.0097,-0.0098,-0.0098,0,0.0607,0.0636,0.0695,0.0741,0.0765,0.0828,0.0886,0.0907,0.0965,0.1,0.1045,0.096,0.0927,0.0646,0.0378,0.0128,-0.0022,-0.0014,-0.0047,-0.0185,-0.0293,-0.0352,-0.0412,-0.0035,-0.0035,-0.0035,-0.0035,0,0.0666,0.0681,0.0731,0.0822,0.0892,0.0967,0.105,0.1113,0.1156,0.1211,0.1269,0.1248,0.0988,0.0755,0.0404,0.0218,-0.0109,-0.002,-0.0178,-0.0262,-0.032,-0.0412,-0.0007,-0.0034,-0.0034,-0.0034,-0.0034,-0.0034,0.0718,0.0764,0.0831,0.0915,0.0998,0.11,0.1175,0.1276,0.1383,0.1482,0.1447,0.1463,0.1123,0.065,0.0363,-0.0106,-0.0127,-0.024,-0.0323,-0.0372,-0.0442,-0.003,-0.0082,-0.0082,-0.0082,-0.0082,-0.0083,0,0.0787,0.084,0.0924,0.1025,0.1114,0.1145,0.1282,0.1366,0.1508,0.1626,0.1676,0.1559,0.1123,0.0668,0.0043,-0.032,-0.0473,-0.0523,-0.0608,-0.0658,-0.0301,-0.0291,-0.0371,-0.0371,-0.0371,-0.0371,-0.0371,-0.037,0.0834,0.0922,0.0957,0.1105,0.1174,0.1302,0.138,0.1514,0.1628,0.1789,0.1847,0.1857,0.1584,0.0407,-0.0397,-0.061,-0.0861,-0.0919,-0.1068,-0.0828,-0.0808,-0.0789,-0.08,-0.0985,-0.0986,-0.1376,-0.138,-0.1383]}],[{"header":{"parameterUnit":"m.s-1","parameterCategory":2,"la1":30.2991,"la2":30.254,"lo1":-89.0895,"lo2":-89.0444,"dx":0.0017,"dy":0.0017,"nx":28,"ny":28,"refTime":"2022-12-14T15:00:00:Z","depth":"2","parameterNumber":2,"parameterNumberName":"U-component_of_CURRENTS"},"data":[0,0,0,0,0,0,0,0,0,0,0,0,0,0,0,0,0,0,0,0,0,0,0,0,0,0,0,0,0,0,0,0,0,0,0,0,0,0,0,0,0,0,0,0,0,0,0,0,0,0,0,0,0,0,0,0,0,0,0.2302,0.2303,0,0.2335,0.2335,0.2335,0.2336,0.2336,0.2336,0.2336,0.2345,0.2345,0.2346,0,0,0,0,0,0,0,0,0,0,0,0,0,0.2244,0.2245,0.2302,0.2303,0.2303,0.2335,0.2335,0.2336,0.2336,0.2336,0.2336,0.2335,0.2345,0.2345,0.2346,0,0,0,0,0,0,0,0,0,0,0,0,0,0.227,0.2245,0.2302,0.2309,0.231,0.2335,0.2335,0.2336,0.2336,0.2336,0.2336,0.2335,0.2345,0.2345,0.2346,0.2356,0,0,0.2348,0.2348,0,0,0,0,0,0,0,0,0.2269,0.2272,0.2307,0.2309,0.231,0.2333,0.2319,0.2342,0.2336,0.2324,0.2336,0.2335,0.2341,0.2342,0.2345,0.2357,0.2357,0.2348,0.2348,0.2349,0.2349,0,0,0,0,0,0,0,0.2267,0.2271,0.2313,0.2308,0.231,0.2313,0.2316,0.2323,0.2331,0.2325,0.2326,0.2333,0.2341,0.2345,0.2346,0.2357,0.2348,0.2349,0.2349,0.2349,0.2416,0.2418,0,0,0,0,0,0,0.2268,0.2269,0.2312,0.2314,0.2291,0.2314,0.2317,0.2324,0.2332,0.2334,0.2333,0.2333,0.2344,0.2345,0.2346,0.2389,0.2349,0.2349,0.235,0.2415,0.2417,0.2418,0,0,0,0,0,0,0.2266,0.2271,0.2311,0.2294,0.23,0.2315,0.2323,0.2325,0.2337,0.2339,0.2339,0.2344,0.2344,0.2345,0.2367,0.2388,0.235,0.235,0.2413,0.2415,0.2417,0.2455,0,0,0,0,0,0,0.2265,0.2271,0.2278,0.2294,0.2301,0.2333,0.2324,0.2326,0.2342,0.2342,0.2348,0.2348,0.2344,0.2366,0.2367,0.2388,0.2351,0.2412,0.2414,0.2417,0.2452,0.2458,0.2463,0,0,0,0,0,0.2262,0.2273,0.2278,0.2283,0.2309,0.2333,0.2337,0.2345,0.2343,0.2353,0.2361,0.2348,0.2383,0.2368,0.2369,0.239,0.241,0.2413,0.2417,0.245,0.2457,0.2463,0,0,0,0,0,0,0.225,0.2275,0.228,0.2297,0.2318,0.2335,0.2347,0.2352,0.2366,0.2368,0.2364,0.2365,0.2395,0.239,0.2372,0.2419,0.2396,0.2399,0.2421,0.2428,0.2433,0.2435,0.2351,0,0,0,0,0,0.2252,0.2268,0.2291,0.2306,0.2318,0.2334,0.2346,0.2354,0.2369,0.2374,0.2379,0.239,0.2408,0.2415,0.2428,0.245,0.2459,0.2467,0.2472,0.2477,0.2481,0.2515,0.2524,0.2428,0.2428,0.2428,0,0,0.2253,0.2269,0.2278,0.2305,0.2321,0.2342,0.234,0.2364,0.2382,0.2374,0.2399,0.2411,0.242,0.2449,0.2461,0.2447,0.2512,0.2481,0.2485,0.2486,0.252,0.2529,0.2537,0.2431,0.243,0.243,0,0,0.2259,0.2277,0.2291,0.2311,0.2341,0.2355,0.2364,0.2388,0.24,0.2428,0.2432,0.2458,0.2476,0.2492,0.2501,0.2547,0.2543,0.2552,0.2578,0.2611,0.2619,0.2626,0.2659,0.2669,0.2551,0.2551,0.2551,0,0.226,0.2277,0.2299,0.2319,0.2335,0.2361,0.2378,0.2402,0.2429,0.2444,0.2441,0.2491,0.2498,0.254,0.2558,0.2559,0.2577,0.2548,0.2618,0.2625,0.2632,0.2664,0.2674,0.2553,0.2553,0.2553,0.2553,0,0.2273,0.2292,0.2305,0.2337,0.2358,0.2381,0.2414,0.2439,0.2457,0.2477,0.2523,0.2543,0.257,0.2583,0.2584,0.2639,0.2637,0.2623,0.2598,0.2644,0.2675,0.2685,0.2556,0.2556,0.2555,0.2554,0,0,0.2259,0.2304,0.2307,0.2324,0.2368,0.2387,0.2426,0.2465,0.25,0.2528,0.257,0.2608,0.2622,0.2635,0.2647,0.2679,0.2746,0.2674,0.2675,0.2702,0.2827,0.2813,0.2822,0.2745,0.2746,0.2748,0.2834,0,0.2262,0.2289,0.2315,0.2349,0.2366,0.2405,0.244,0.2482,0.2524,0.2576,0.2608,0.2658,0.2642,0.2672,0.2698,0.2743,0.2773,0.2725,0.2783,0.2785,0.2762,0.2833,0.262,0.2677,0.2843,0.2845,0.2846,0,0.2258,0.228,0.2301,0.2353,0.2366,0.2391,0.2454,0.2496,0.2574,0.2612,0.2662,0.2696,0.2759,0.2739,0.2818,0.279,0.2811,0.2835,0.2839,0.2817,0.2789,0.2657,0.2689,0.2862,0.2861,0.286,0.2859,0,0.2221,0.227,0.2283,0.23,0.2362,0.2382,0.2423,0.2498,0.2544,0.2647,0.2694,0.2761,0.2812,0.2848,0.2893,0.2866,0.2981,0.2945,0.2948,0.2947,0.2772,0.2753,0.2996,0.2996,0.2995,0.2995,0.2995,0,0.2205,0.222,0.2267,0.2277,0.231,0.2363,0.2416,0.2477,0.2567,0.2631,0.2709,0.2773,0.2844,0.291,0.2929,0.2981,0.3007,0.2973,0.2976,0.2782,0.2763,0.2921,0.2911,0.2998,0.2998,0.2997,0.2997,0,0.2162,0.2191,0.2214,0.2272,0.2291,0.2316,0.2401,0.2452,0.2546,0.2635,0.2673,0.2802,0.2905,0.2965,0.3053,0.3034,0.3083,0.3086,0.2861,0.2836,0.3014,0.3005,0.3103,0.3103,0.3104,0.3104,0.3104,0,0.2142,0.2149,0.2197,0.2219,0.2244,0.2292,0.2332,0.2428,0.2487,0.2643,0.2685,0.2825,0.2907,0.3041,0.3062,0.3112,0.3124,0.2921,0.2828,0.3036,0.3029,0.3019,0.3011,0.2611,0.2607,0.2604,0.2602,0,0.2117,0.213,0.2156,0.219,0.2225,0.2259,0.2323,0.2356,0.2478,0.2557,0.2676,0.2758,0.2908,0.2887,0.2966,0.295,0.2898,0.2861,0.3141,0.2626,0.2582,0.2572,0.2577,0.2574,0.2577,0.2579,0.258,0.2581,0.2103,0.2111,0.2144,0.2165,0.2201,0.2214,0.2214,0.2291,0.2355,0.2435,0.2576,0.263,0.2704,0.2739,0.2676,0.2632,0.2827,0.2686,0.2691,0.27,0.2638,0.2597,0.258,0.2583,0.2585,0.2587,0.2589,0,0.2098,0.2101,0.2124,0.2134,0.2128,0.217,0.2201,0.2179,0.2206,0.2321,0.2397,0.2272,0.2298,0.2352,0.2269,0.2294,0.2213,0.2177,0.2047,0.2081,0.211,0.201,0.1789,0.1786,0.1783,0.178,0,0,0.2099,0.2099,0.2093,0.2048,0.2058,0.2018,0.201,0.199,0.2035,0.2019,0.2036,0.2227,0.2339,0.2042,0.2019,0.189,0.1954,0.1813,0.2472,0.2357,0.2381,0.2443,0.2334,0,0,0,0,0]},{"header":{"parameterUnit":"m.s-1","parameterCategory":2,"la1":30.2991,"la2":30.254,"lo1":-89.0895,"lo2":-89.0444,"dx":0.0017,"dy":0.0017,"nx":28,"ny":28,"refTime":"2022-12-14T15:00:00:Z","depth":"2","parameterNumber":3,"parameterNumberName":"V-component_of_CURRENTS"},"data":[0,0,0,0,0,0,0,0,0,0,0,0,0,0,0,0,0,0,0,0,0,0,0,0,0,0,0,0,0,0,0,0,0,0,0,0,0,0,0,0,0,0,0,0,0,0,0,0,0,0,0,0,0,0,0,0,0,0,0.0063,0.0062,0,-0.0001,-0.0002,-0.0003,-0.0046,-0.0046,-0.0046,-0.0046,-0.0135,-0.0137,-0.0139,0,0,0,0,0,0,0,0,0,0,0,0,0,0.0099,0.0099,0.0063,0.0062,0.0062,-0.0001,-0.0002,-0.0003,-0.0046,-0.0046,-0.0046,-0.0047,-0.0134,-0.0137,-0.014,0,0,0,0,0,0,0,0,0,0,0,0,0,0.0063,0.0099,0.0063,0.0034,0.003,-0.0001,-0.0002,-0.0003,-0.0046,-0.0046,-0.0046,-0.0047,-0.0134,-0.0137,-0.014,-0.0154,0,0,-0.015,-0.0151,0,0,0,0,0,0,0,0,0.0065,0.0062,0.0039,0.0036,0.0032,-0.0015,-0.0022,-0.0055,-0.0046,-0.0018,-0.0046,-0.0047,-0.0096,-0.0102,-0.0115,-0.0159,-0.0162,-0.015,-0.0152,-0.0154,-0.0155,0,0,0,0,0,0,0,0.0068,0.0064,0.0036,0.0038,0.0034,0.0007,0.0002,-0.0028,-0.0056,-0.0021,-0.0024,-0.0029,-0.0098,-0.0112,-0.0118,-0.0164,-0.015,-0.0153,-0.0155,-0.0156,-0.0217,-0.0217,0,0,0,0,0,0,0.0081,0.0067,0.0038,0.0035,0.005,0.0007,0.0001,-0.0,-0.0055,-0.0064,-0.0028,-0.003,-0.0106,-0.0114,-0.0121,-0.0124,-0.0154,-0.0157,-0.0159,-0.0218,-0.0217,-0.0217,0,0,0,0,0,0,0.0082,0.008,0.0041,0.005,0.0043,0.0007,0.0005,-0.0002,-0.0012,-0.0061,-0.007,-0.0031,-0.0107,-0.0116,-0.0141,-0.0129,-0.0158,-0.0161,-0.0218,-0.0218,-0.0217,-0.0142,0,0,0,0,0,0,0.0084,0.0081,0.0085,0.0051,0.0043,0.0031,0.0006,-0.0003,-0.0014,-0.0018,-0.0066,-0.0075,-0.0108,-0.0135,-0.0144,-0.0134,-0.0164,-0.0219,-0.0218,-0.0217,-0.0145,-0.0139,-0.0134,0,0,0,0,0,0.0085,0.0097,0.0086,0.0082,0.0051,0.0032,0.0026,-0.0003,-0.0014,-0.0014,-0.0046,-0.0073,-0.0137,-0.0138,-0.0148,-0.0138,-0.0219,-0.0218,-0.0217,-0.0147,-0.014,-0.0134,0,0,0,0,0,0,0.0114,0.0092,0.008,0.0083,0.0063,0.0025,0.0025,0.0004,-0.0022,-0.0022,-0.007,-0.0081,-0.0098,-0.0129,-0.0128,-0.0155,-0.0182,-0.0183,-0.0126,-0.0119,-0.0114,-0.0096,-0.0166,0,0,0,0,0,0.0124,0.0126,0.0098,0.0101,0.0095,0.0061,0.005,0.0033,0.0005,-0.0006,-0.004,-0.0075,-0.0104,-0.0119,-0.015,-0.0164,-0.0194,-0.0165,-0.0159,-0.0154,-0.0147,-0.0181,-0.0177,-0.0215,-0.0215,-0.0215,0,0,0.0136,0.0124,0.0125,0.0107,0.009,0.009,0.0054,0.0047,0.0046,-0.0012,-0.0021,-0.0057,-0.0103,-0.0119,-0.0129,-0.0142,-0.016,-0.0153,-0.0149,-0.0144,-0.018,-0.0176,-0.0173,-0.0214,-0.0214,-0.0214,0,0,0.0165,0.0153,0.0166,0.0154,0.0137,0.0116,0.0118,0.0087,0.0074,0.0058,0.0019,-0.0007,-0.0053,-0.0081,-0.0102,-0.0086,-0.013,-0.0097,-0.0054,-0.0086,-0.0083,-0.0081,-0.0111,-0.0112,-0.0093,-0.0093,-0.0093,0,0.018,0.0192,0.0166,0.0176,0.0174,0.0133,0.0148,0.0128,0.0093,0.0087,0.0066,0.0005,-0.0034,-0.0053,-0.0048,-0.0072,-0.0098,-0.0073,-0.0078,-0.0076,-0.0075,-0.0107,-0.0109,-0.0089,-0.009,-0.009,-0.009,0,0.0217,0.0227,0.0236,0.0235,0.023,0.0235,0.0209,0.0201,0.0178,0.0154,0.0131,0.0076,0.0042,0.0024,-0.0009,-0.0018,-0.0041,-0.0066,-0.0091,-0.0067,-0.0102,-0.0105,-0.0084,-0.0085,-0.0086,-0.0087,0,0,0.0249,0.026,0.0263,0.0277,0.0263,0.0264,0.0268,0.0257,0.0265,0.0221,0.0224,0.0166,0.0136,0.011,0.0064,0.0033,0.0016,-0.0007,-0.001,-0.0029,-0.0053,-0.0062,-0.0067,-0.0009,-0.001,-0.001,-0.0079,0,0.0285,0.0323,0.0315,0.0348,0.0366,0.034,0.0349,0.0334,0.0312,0.0304,0.0245,0.0228,0.0168,0.0158,0.0117,0.0044,0.0009,0.0037,-0.008,-0.0084,-0.0088,-0.0071,-0.0051,-0.011,-0.0083,-0.0083,-0.0084,0,0.0323,0.0345,0.0388,0.0413,0.0419,0.0433,0.0444,0.0447,0.0423,0.0407,0.0375,0.0326,0.0278,0.0224,0.011,0.0131,0.0048,-0.0016,-0.0021,-0.0057,-0.0099,-0.0131,-0.0118,-0.009,-0.009,-0.0089,-0.0089,0,0.0361,0.0395,0.0433,0.044,0.046,0.0479,0.049,0.0482,0.0502,0.0479,0.049,0.0409,0.0386,0.0272,0.0139,0.0125,0.0012,-0.0028,-0.0116,-0.0118,-0.0138,-0.0141,-0.0109,-0.0109,-0.0109,-0.0109,-0.0109,0,0.04,0.0432,0.0458,0.0481,0.0536,0.0531,0.0584,0.0581,0.0594,0.0635,0.0553,0.0564,0.0397,0.0311,0.0173,0.0027,0.0035,-0.0103,-0.0134,-0.0111,-0.0111,-0.0126,-0.0127,-0.0111,-0.0111,-0.011,-0.011,0,0.0436,0.045,0.0499,0.0537,0.0558,0.0598,0.0661,0.0701,0.0701,0.0754,0.0756,0.0684,0.0574,0.04,0.0219,0.0086,-0.0063,-0.012,-0.0079,-0.0104,-0.0184,-0.0181,-0.0229,-0.023,-0.023,-0.0231,-0.0232,0,0.0457,0.0487,0.0548,0.0592,0.0617,0.0679,0.0733,0.0756,0.0805,0.0835,0.0869,0.0785,0.0742,0.047,0.0218,-0.0022,-0.0056,-0.0162,-0.0191,-0.0169,-0.0195,-0.0191,-0.0186,-0.0192,-0.0192,-0.0192,-0.0193,0,0.0505,0.0523,0.057,0.0661,0.0728,0.08,0.0877,0.0932,0.0971,0.1009,0.105,0.1022,0.0779,0.0535,0.0206,0.0044,-0.0124,-0.0172,-0.0159,-0.0158,-0.0139,-0.0163,-0.0159,-0.0193,-0.0193,-0.0193,-0.0193,-0.0193,0.0541,0.0586,0.0653,0.0734,0.0818,0.0913,0.098,0.1058,0.1141,0.1207,0.1183,0.1149,0.0877,0.0459,0.0167,-0.0135,-0.0124,-0.0234,-0.0233,-0.0231,-0.0208,-0.019,-0.025,-0.025,-0.025,-0.025,-0.0251,0,0.0598,0.0644,0.0724,0.0821,0.0907,0.0952,0.1072,0.1129,0.1228,0.13,0.1326,0.1076,0.0811,0.0506,0.0052,-0.0217,-0.0238,-0.0296,-0.027,-0.0266,-0.0264,-0.0242,-0.0294,-0.0295,-0.0296,-0.0297,0,0,0.063,0.071,0.0743,0.087,0.0951,0.1079,0.1151,0.1231,0.1299,0.1338,0.1331,0.1302,0.0928,0.0591,0.0219,-0.004,-0.0087,-0.0085,-0.002,0.0059,0.0064,-0.0198,-0.0156,0,0,0,0,0]}],[{"header":{"parameterUnit":"m.s-1","parameterCategory":2,"la1":30.2991,"la2":30.254,"lo1":-89.0895,"lo2":-89.0444,"dx":0.0017,"dy":0.0017,"nx":28,"ny":28,"refTime":"2022-12-14T15:00:00:Z","depth":"4","parameterNumber":2,"parameterNumberName":"U-component_of_CURRENTS"},"data":[0,0,0,0,0,0,0,0,0,0,0,0,0,0,0,0,0,0,0,0,0,0,0,0,0,0,0,0,0,0,0,0,0,0,0,0,0,0,0,0,0,0,0,0,0,0,0,0,0,0,0,0,0,0,0,0,0,0,0.1495,0.1496,0,0.1562,0.1563,0.1564,0.1615,0.1616,0.1617,0.1617,0.1692,0.1694,0.1695,0,0,0,0,0,0,0,0,0,0,0,0,0,0.1407,0.1409,0.1495,0.1496,0.1497,0.1562,0.1563,0.1564,0.1615,0.1616,0.1617,0.1617,0.1692,0.1694,0.1695,0,0,0,0,0,0,0,0,0,0,0,0,0,0.1455,0.1409,0.1495,0.1532,0.1536,0.1562,0.1563,0.1564,0.1615,0.1616,0.1617,0.1618,0.1691,0.1694,0.1696,0.1689,0,0,0.1702,0.1703,0,0,0,0,0,0,0,0,0.1452,0.1458,0.1526,0.153,0.1534,0.1583,0.156,0.1607,0.1615,0.1583,0.1617,0.1618,0.1657,0.1662,0.167,0.1692,0.1695,0.1702,0.1703,0.1704,0.1705,0,0,0,0,0,0,0,0.1449,0.1456,0.152,0.1527,0.1532,0.1544,0.1552,0.1569,0.1612,0.1586,0.159,0.16,0.166,0.1668,0.1672,0.1696,0.1702,0.1704,0.1705,0.1706,0.1815,0.1816,0,0,0,0,0,0,0.1444,0.1452,0.1518,0.1522,0.1497,0.1545,0.1554,0.1565,0.1612,0.1621,0.16,0.1603,0.1664,0.1669,0.1675,0.1757,0.1704,0.1706,0.1707,0.1813,0.1815,0.1817,0,0,0,0,0,0,0.1442,0.1449,0.1515,0.149,0.15,0.1546,0.1558,0.1566,0.1608,0.1623,0.1632,0.1637,0.1665,0.1672,0.1722,0.1757,0.1707,0.1709,0.1811,0.1814,0.1816,0.1866,0,0,0,0,0,0,0.1439,0.1448,0.1469,0.149,0.1501,0.1552,0.1557,0.1566,0.1611,0.1617,0.1657,0.1664,0.1666,0.1719,0.1724,0.1759,0.1711,0.1809,0.1812,0.1815,0.1862,0.187,0.1876,0,0,0,0,0,0.1436,0.1454,0.147,0.1479,0.1524,0.1553,0.1561,0.1594,0.1612,0.1635,0.1667,0.1664,0.1742,0.1722,0.1728,0.1764,0.1807,0.1811,0.1815,0.1859,0.1868,0.1876,0,0,0,0,0,0,0.1428,0.1462,0.1479,0.1509,0.1541,0.1563,0.1593,0.1612,0.1654,0.1672,0.1683,0.1691,0.1749,0.175,0.1727,0.1805,0.1775,0.178,0.1807,0.1816,0.1823,0.1823,0.1712,0,0,0,0,0,0.1435,0.1462,0.1492,0.1521,0.1539,0.1572,0.1595,0.1619,0.1651,0.1673,0.1701,0.1733,0.1762,0.1785,0.1808,0.1849,0.1852,0.1877,0.1884,0.189,0.1895,0.1927,0.1937,0.1829,0.1829,0.1829,0,0,0.144,0.1464,0.1481,0.1523,0.1552,0.1581,0.159,0.1635,0.1667,0.1673,0.1736,0.1761,0.1779,0.1827,0.1853,0.1838,0.1925,0.1895,0.19,0.1901,0.1932,0.1942,0.1951,0.1831,0.1831,0.183,0,0,0.1453,0.1488,0.1513,0.1542,0.1593,0.1612,0.1632,0.1675,0.1708,0.1761,0.1777,0.1824,0.1869,0.1889,0.1903,0.1962,0.1961,0.1977,0.2015,0.2046,0.2055,0.2063,0.2086,0.2096,0.1981,0.1981,0.1981,0,0.146,0.1493,0.1525,0.1556,0.1585,0.1628,0.1658,0.1694,0.1751,0.178,0.1793,0.1877,0.1896,0.1948,0.1974,0.1978,0.1995,0.1979,0.2055,0.2062,0.2069,0.2091,0.2101,0.1984,0.1984,0.1984,0.1983,0,0.1481,0.1521,0.1541,0.1592,0.1626,0.1664,0.171,0.1757,0.1803,0.1834,0.1911,0.1943,0.1991,0.2009,0.2013,0.2079,0.2074,0.2058,0.203,0.2083,0.2103,0.2113,0.1988,0.1987,0.1986,0.1986,0,0,0.1457,0.1539,0.1549,0.1582,0.1651,0.1678,0.1738,0.1796,0.1847,0.1909,0.1969,0.2029,0.2058,0.2075,0.2094,0.2127,0.2196,0.2124,0.2124,0.2142,0.2271,0.214,0.2137,0.2198,0.22,0.2201,0.2266,0,0.1467,0.1524,0.1564,0.1626,0.1658,0.1718,0.1768,0.1831,0.1893,0.1964,0.2012,0.2082,0.2079,0.2123,0.2154,0.2192,0.2223,0.218,0.2221,0.2222,0.2095,0.2144,0.2207,0.2273,0.2275,0.2276,0.2278,0,0.1466,0.1508,0.1566,0.1648,0.1669,0.1715,0.1809,0.1864,0.1962,0.2016,0.2088,0.2131,0.2207,0.2193,0.2273,0.2252,0.2268,0.2285,0.2288,0.2152,0.2108,0.2208,0.2294,0.2293,0.2292,0.229,0.2289,0,0.1421,0.1506,0.1555,0.1584,0.168,0.1725,0.1786,0.1883,0.194,0.2063,0.2119,0.2202,0.2263,0.2299,0.234,0.2322,0.2415,0.2385,0.2279,0.227,0.2345,0.2336,0.2432,0.2431,0.2431,0.2431,0.2431,0,0.1399,0.1442,0.1546,0.1573,0.1638,0.1716,0.1799,0.1875,0.1985,0.205,0.2149,0.2205,0.2298,0.2354,0.2369,0.2353,0.2437,0.2293,0.2279,0.2366,0.2358,0.2352,0.2342,0.2434,0.2433,0.2433,0.2432,0,0.1338,0.141,0.147,0.158,0.162,0.167,0.1797,0.1852,0.1974,0.2063,0.2108,0.2235,0.2311,0.2376,0.2448,0.238,0.2386,0.2357,0.2461,0.2451,0.2213,0.2206,0.2237,0.2233,0.2229,0.2226,0.2224,0,0.1309,0.1335,0.1458,0.1496,0.1552,0.1641,0.1697,0.1832,0.1887,0.2056,0.208,0.221,0.2275,0.2272,0.2351,0.237,0.2341,0.2322,0.2248,0.221,0.2195,0.2192,0.2189,0.2219,0.2218,0.2217,0.2216,0,0.1242,0.13,0.1349,0.1428,0.1496,0.1559,0.1652,0.1676,0.1825,0.1954,0.2011,0.2056,0.2137,0.2189,0.2226,0.223,0.2321,0.2285,0.2291,0.2222,0.2189,0.2176,0.2177,0.2204,0.2206,0.2207,0.2208,0,0.119,0.1209,0.1281,0.134,0.1419,0.1447,0.151,0.1573,0.1645,0.1828,0.1844,0.1984,0.2115,0.2118,0.215,0.2151,0.2112,0.2029,0.2047,0.2061,0.1973,0.1904,0.1825,0,0,0,0,0,0.1126,0.1139,0.1186,0.124,0.1311,0.1356,0.1463,0.1528,0.1669,0.1665,0.175,0.1818,0.1877,0.1953,0.1919,0.2068,0.2115,0.2018,0.2027,0.2138,0.2152,0.2064,0,0,0,0,0,0,0.1085,0.1124,0.1147,0.114,0.1157,0.1218,0.1279,0.1374,0.1381,0.1537,0.1584,0.1707,0.1796,0.188,0.1884,0.1906,0.1873,0.2112,0.2108,0.213,0.2143,0.2154,0.2068,0,0,0,0,0]},{"header":{"parameterUnit":"m.s-1","parameterCategory":2,"la1":30.2991,"la2":30.254,"lo1":-89.0895,"lo2":-89.0444,"dx":0.0017,"dy":0.0017,"nx":28,"ny":28,"refTime":"2022-12-14T15:00:00:Z","depth":"4","parameterNumber":3,"parameterNumberName":"V-component_of_CURRENTS"},"data":[0,0,0,0,0,0,0,0,0,0,0,0,0,0,0,0,0,0,0,0,0,0,0,0,0,0,0,0,0,0,0,0,0,0,0,0,0,0,0,0,0,0,0,0,0,0,0,0,0,0,0,0,0,0,0,0,0,0,-0.0018,-0.0019,0,-0.0062,-0.0062,-0.0063,-0.0096,-0.0096,-0.0096,-0.0097,-0.0166,-0.0168,-0.0169,0,0,0,0,0,0,0,0,0,0,0,0,0,0.0004,0.0004,-0.0018,-0.0019,-0.0019,-0.0062,-0.0062,-0.0063,-0.0096,-0.0096,-0.0097,-0.0097,-0.0166,-0.0167,-0.0169,0,0,0,0,0,0,0,0,0,0,0,0,0,-0.002,0.0004,-0.0018,-0.004,-0.0043,-0.0062,-0.0062,-0.0063,-0.0096,-0.0096,-0.0097,-0.0097,-0.0165,-0.0167,-0.017,-0.0178,0,0,-0.0177,-0.0178,0,0,0,0,0,0,0,0,-0.0019,-0.0021,-0.0037,-0.0039,-0.0041,-0.0073,-0.008,-0.0103,-0.0096,-0.0077,-0.0097,-0.0097,-0.0137,-0.0141,-0.015,-0.0181,-0.0184,-0.0177,-0.0179,-0.018,-0.0181,0,0,0,0,0,0,0,-0.0017,-0.0019,-0.0036,-0.0037,-0.004,-0.0059,-0.0062,-0.0084,-0.0105,-0.0078,-0.0081,-0.0084,-0.0138,-0.0147,-0.0151,-0.0185,-0.0177,-0.0179,-0.0181,-0.0182,-0.0232,-0.0232,0,0,0,0,0,0,-0.0008,-0.0017,-0.0035,-0.0038,-0.003,-0.0059,-0.0063,-0.0063,-0.0104,-0.0111,-0.0084,-0.0085,-0.0143,-0.0149,-0.0154,-0.0161,-0.018,-0.0182,-0.0184,-0.0232,-0.0232,-0.0232,0,0,0,0,0,0,-0.0007,-0.0009,-0.0033,-0.0028,-0.0033,-0.0058,-0.0059,-0.0064,-0.0073,-0.0108,-0.0115,-0.0087,-0.0143,-0.0151,-0.017,-0.0165,-0.0183,-0.0185,-0.0232,-0.0232,-0.0232,-0.0179,0,0,0,0,0,0,-0.0006,-0.0008,-0.0005,-0.0027,-0.0032,-0.004,-0.0059,-0.0064,-0.0074,-0.0077,-0.0114,-0.012,-0.0144,-0.0167,-0.0173,-0.0168,-0.0187,-0.0232,-0.0232,-0.0232,-0.0181,-0.0177,-0.0174,0,0,0,0,0,-0.0005,0.0002,-0.0005,-0.0007,-0.0028,-0.0039,-0.0044,-0.0064,-0.0074,-0.0074,-0.0099,-0.0119,-0.0169,-0.0168,-0.0176,-0.0172,-0.0232,-0.0232,-0.0232,-0.0183,-0.0178,-0.0174,0,0,0,0,0,0,0.0011,-0.0001,-0.0009,-0.0007,-0.002,-0.0045,-0.0046,-0.006,-0.008,-0.0082,-0.0117,-0.0125,-0.0141,-0.0164,-0.0162,-0.0186,-0.0204,-0.0206,-0.0165,-0.0161,-0.0157,-0.0143,-0.0189,0,0,0,0,0,0.0018,0.0021,0.0003,0.0005,0.0001,-0.0022,-0.0029,-0.0041,-0.0061,-0.007,-0.0096,-0.0123,-0.0146,-0.0158,-0.0182,-0.0194,-0.0218,-0.0197,-0.0193,-0.019,-0.0184,-0.0214,-0.0212,-0.023,-0.023,-0.023,0,0,0.0024,0.0018,0.0019,0.0008,-0.0003,-0.0002,-0.0027,-0.0032,-0.0033,-0.0075,-0.0083,-0.0111,-0.0147,-0.016,-0.0169,-0.0178,-0.0197,-0.0189,-0.0186,-0.0182,-0.0213,-0.0211,-0.021,-0.023,-0.023,-0.023,0,0,0.0042,0.0035,0.0044,0.0038,0.0027,0.0014,0.0015,-0.0005,-0.0015,-0.0027,-0.0057,-0.0079,-0.0113,-0.0136,-0.0153,-0.0144,-0.0178,-0.0153,-0.0122,-0.0151,-0.015,-0.0149,-0.0175,-0.0177,-0.015,-0.015,-0.015,0,0.0049,0.006,0.0044,0.0052,0.0053,0.0025,0.0037,0.0023,-0.0002,-0.0006,-0.0022,-0.007,-0.0102,-0.012,-0.0117,-0.0136,-0.0156,-0.0134,-0.0146,-0.0145,-0.0145,-0.0173,-0.0175,-0.0148,-0.0148,-0.0148,-0.0148,0,0.0073,0.0083,0.0088,0.0091,0.009,0.0094,0.0078,0.0073,0.0057,0.0041,0.0021,-0.0023,-0.0049,-0.0066,-0.0089,-0.0103,-0.0119,-0.0137,-0.0154,-0.014,-0.017,-0.0174,-0.0144,-0.0145,-0.0146,-0.0146,0,0,0.0086,0.0103,0.0105,0.0118,0.0113,0.0115,0.0119,0.0114,0.012,0.0086,0.0088,0.004,0.0017,-0.0004,-0.0039,-0.0067,-0.0088,-0.0096,-0.0099,-0.0116,-0.0149,-0.015,-0.0154,-0.0107,-0.0108,-0.0108,-0.017,0,0.0109,0.0139,0.0139,0.0166,0.0181,0.0167,0.0176,0.0168,0.0154,0.0148,0.01,0.0086,0.0041,0.0032,-0.0004,-0.0065,-0.0095,-0.0069,-0.0165,-0.0168,-0.0165,-0.0158,-0.0109,-0.0173,-0.0174,-0.0174,-0.0175,0,0.013,0.0151,0.0186,0.0212,0.0218,0.0231,0.0245,0.0249,0.0233,0.0223,0.0197,0.0159,0.0116,0.0077,-0.0021,-0.0001,-0.0067,-0.0121,-0.0125,-0.0145,-0.0175,-0.0192,-0.0182,-0.0182,-0.0181,-0.0181,-0.018,0,0.015,0.0181,0.0213,0.0221,0.0245,0.0263,0.0276,0.0275,0.0291,0.0275,0.0282,0.0218,0.0195,0.0104,-0.0005,-0.0012,-0.0115,-0.0141,-0.0206,-0.0207,-0.0212,-0.0212,-0.021,-0.021,-0.0209,-0.0209,-0.0209,0,0.0171,0.0196,0.0228,0.0248,0.0292,0.0298,0.0341,0.0343,0.0357,0.0383,0.0327,0.0326,0.0201,0.0126,0.0018,-0.01,-0.0099,-0.0197,-0.0221,-0.0189,-0.0186,-0.0214,-0.0214,-0.0212,-0.0211,-0.0211,-0.021,0,0.0183,0.0204,0.0243,0.0284,0.0304,0.0335,0.0394,0.042,0.0431,0.0464,0.0465,0.0408,0.0311,0.018,0.0031,-0.006,-0.018,-0.0224,-0.0171,-0.0192,-0.026,-0.0257,-0.0301,-0.0302,-0.0302,-0.0302,-0.0303,0,0.019,0.0212,0.0271,0.0301,0.0325,0.0378,0.0417,0.0454,0.0486,0.0512,0.0525,0.0457,0.0398,0.02,0.0049,-0.0152,-0.0188,-0.025,-0.0265,-0.0249,-0.0269,-0.0265,-0.026,-0.0303,-0.0303,-0.0304,-0.0304,0,0.0197,0.0217,0.025,0.0318,0.037,0.043,0.049,0.0523,0.0566,0.0584,0.0584,0.049,0.0381,0.0212,0.006,-0.009,-0.0209,-0.0255,-0.0256,-0.027,-0.0253,-0.0271,-0.0266,-0.0305,-0.0305,-0.0305,-0.0305,0,0.0194,0.0217,0.0263,0.0325,0.0391,0.0456,0.0494,0.0541,0.0583,0.0618,0.0616,0.0511,0.0454,0.0244,0.0101,-0.0041,-0.0089,-0.0144,-0.0151,-0.0151,-0.0096,-0.005,-0.0056,0,0,0,0,0,0.0185,0.0215,0.0266,0.0336,0.0403,0.0447,0.0526,0.0559,0.0611,0.0623,0.0628,0.0532,0.0344,0.0259,0.0117,0.0059,-0.0138,-0.0116,-0.0211,-0.0313,-0.0311,-0.0272,0,0,0,0,0,0,0.0178,0.0222,0.0257,0.0335,0.0383,0.0463,0.0515,0.0554,0.0562,0.0598,0.05,0.0486,0.0294,0.0426,0.0111,0.0069,-0.0014,-0.0196,-0.0199,-0.0314,-0.0313,-0.0311,-0.027,0,0,0,0,0]}]]